Location: St. Louis
(38.6270°N, 90.1994°W)
Time: 11:12:15
(UTC-06:00)

S-56A Canister/Altair - Pass Details

Date: 01 December 2021
Orbit: 634 x 2499 km, 38.9° (Epoch: 26 January)

Event Time Altitude Azimuth Distance (km) Brightness Sun altitude
Enters shadow 21:57:12 - 204° (SSW) 5,686 12.0 -60.7°
Rises 21:57:12 0° 204° (SSW) 5,683 - -60.7°
Reaches altitude 10° 22:02:17 10° 191° (SSW) 4,383 - -61.6°
Maximum altitude 22:10:23 23° 146° (SE) 2,905 - -62.9°
Drops below altitude 10° 22:16:35 10° 98° (E) 3,277 - -64.0°
Sets 22:19:42 0° 84° (E) 3,972 - -64.5°
